Waarnemingen

Advertentie
Mijn weer
Pau, Frankrijk (7610): temperatuur & dauwpunt: 14.08.2017 00:00:00 - 20.08.2017 00:00:00 (CEST)Pau, Frankrijk (7610): temperatuur 5cm: 14.08.2017 00:00:00 - 20.08.2017 00:00:00 (CEST)Pau, Frankrijk (7610): temperatuur -20cm & temperatuur -100cm: 14.08.2017 00:00:00 - 20.08.2017 00:00:00 (CEST)Pau, Frankrijk (7610): windsnelheid & windstoten: 14.08.2017 00:00:00 - 20.08.2017 00:00:00 (CEST)Pau, Frankrijk (7610): windrichting: 14.08.2017 00:00:00 - 20.08.2017 00:00:00 (CEST)Pau, Frankrijk (7610): luchtdruk: 14.08.2017 00:00:00 - 20.08.2017 00:00:00 (CEST)Pau, Frankrijk (7610): zicht: 14.08.2017 00:00:00 - 20.08.2017 00:00:00 (CEST)Pau, Frankrijk (7610): Zonneschijnduur: 14.08.2017 00:00:00 - 20.08.2017 00:00:00 (CEST)Pau, Frankrijk (7610): neerslag: 14.08.2017 00:00:00 - 20.08.2017 00:00:00 (CEST)
Datum & Tijd tt [°C] td [°C] tt 5cm [°C] tt -20cm [°C] tt -100cm [°C] ff [km/u] ff [kn] fx [km/u] fx [kn] dd ppp [hPa] vv [km] sd [min] rr [mm]
20.08.2017 00:00:00 14,4 12,6 10,9 21,9 19,7 4 2 11 6 NNW 1025,2 37 0 0,0
19.08.2017 23:00:00 15,0 13,2 12,7 21,9 19,7 4 2 8 4 NW 1024,6 39 0 0,0
19.08.2017 22:00:00 16,6 13,3 13,3 21,8 19,7 3 1 4 2 O 1024,1 46 0 0,0
19.08.2017 21:00:00 20,0 12,5 16,3 21,8 19,7 3 1 8 4 N 1023,4 16 42 0,0
19.08.2017 20:00:00 21,9 13,0 22,3 21,7 19,7 8 4 15 8 NNO 1023,1 52 60 0,0
19.08.2017 19:00:00 23,1 12,7 27,0 21,5 19,7 8 4 17 9 NW 1022,7 48 60 0,0
19.08.2017 18:00:00 23,2 13,1 26,6 21,5 19,7 9 5 16 9 NNW 1022,8 42 55 0,0
19.08.2017 17:00:00 23,5 13,9 25,8 21,4 19,7 6 4 18 10 NNO 1023,0 20 47 0,0
19.08.2017 16:00:00 22,5 13,8 25,0 21,3 19,7 6 4 18 10 NNO 1023,0 33 24 0,0
19.08.2017 15:00:00 21,8 14,2 25,0 21,3 19,7 7 4 20 11 NNO 1023,4 39 6 0,0
19.08.2017 14:00:00 21,5 13,4 24,8 21,2 19,7 9 5 18 10 N 1023,2 49 1 0,0
19.08.2017 13:00:00 21,5 14,4 23,8 21,2 19,7 6 4 16 9 N 1023,4 45 40 0,0
19.08.2017 12:00:00 19,9 14,7 21,8 21,2 19,7 6 4 16 9 NNO 1023,7 36 28 0,0
19.08.2017 11:00:00 18,6 15,1 19,9 21,3 19,7 7 4 18 10 ONO 1023,9 24 6 0,0
19.08.2017 10:00:00 17,9 15,7 17,4 21,4 19,7 10 5 20 11 ONO 1023,9 20 12 0,0
19.08.2017 09:00:00 16,9 16,4 15,8 21,5 19,7 7 4 12 6 NNO 1023,6 20 32 0,0
19.08.2017 08:00:00 16,0 15,7 15,5 21,5 19,7 4 2 7 4 NO 1023,1 13 0 0,2
19.08.2017 07:00:00 15,6 15,3 14,0 21,6 19,7 0 0 5 3 N 1022,7 0,5 0 0,0
19.08.2017 06:00:00 16,0 15,7 15,0 21,7 19,7 0 0 4 2 N 1022,5 8 0 0,0
19.08.2017 05:00:00 15,8 15,3 14,6 21,7 19,7 3 2 5 3 NO 1022,7 0,6 0 0,0
19.08.2017 04:00:00 16,3 15,8 14,8 21,8 19,7 0 0 5 3 N 1022,7 0,5 0 0,0
19.08.2017 03:00:00 16,7 16,4 14,4 21,9 19,7 0 0 4 2 N 1022,9 2,3 0 0,0
19.08.2017 02:00:00 16,2 15,6 14,4 21,9 19,7 0 0 7 4 N 1022,9 0,3 0 0,0
19.08.2017 01:00:00 16,8 16,2 13,8 22,0 19,7 3 2 10 6 ZW 1023,1 0,8 0 0,0
19.08.2017 00:00:00 17,9 17,1 15,4 22,0 19,7 6 3 10 5 W 1022,8 14 0 0,0
18.08.2017 23:00:00 18,7 17,9 18,0 22,1 19,7 8 4 12 6 W 1022,7 15 0 0,0
18.08.2017 22:00:00 18,9 18,1 18,4 22,1 19,7 4 2 7 4 WZW 1021,9 20 0 0,0
18.08.2017 21:00:00 19,3 18,5 18,8 22,1 19,6 6 3 15 8 Z 1021,5 19 0 0,0
18.08.2017 20:00:00 19,6 18,8 19,3 22,1 19,7 9 5 16 9 ZZW 1021,7 14 0 0,2
18.08.2017 19:00:00 20,0 18,5 19,5 22,1 19,7 8 5 13 7 ZZW 1021,3 23 0 0,0
18.08.2017 18:00:00 19,9 18,7 19,5 22,1 19,6 4 2 7 4 ZZW 1021,3 6 0 0,2
18.08.2017 17:00:00 19,8 18,6 19,6 22,1 19,7 2 1 13 7 W 1021,2 19 0 0,2
18.08.2017 16:00:00 19,8 18,3 20,1 22,1 19,7 14 8 21 11 WNW 1021,0 4,0 0 0,2
18.08.2017 15:00:00 20,2 18,3 19,9 22,2 19,7 10 5 15 8 W 1020,8 18 0 0,0
18.08.2017 14:00:00 19,8 18,5 19,9 22,2 19,6 2 1 13 7 N 1020,7 4,0 0 0,0
18.08.2017 13:00:00 20,8 17,6 20,9 22,2 19,6 8 5 23 12 WNW 1020,5 29 0 0,0
18.08.2017 12:00:00 21,1 17,9 23,1 22,2 19,6 9 5 14 8 NNW 1019,9 35 0 0,0
18.08.2017 11:00:00 20,4 17,8 22,1 22,3 19,6 6 3 16 9 NW 1019,6 23 0 0,0
18.08.2017 10:00:00 19,7 17,8 21,5 22,3 19,7 11 6 17 9 N 1019,5 19 4 0,0
18.08.2017 09:00:00 19,0 17,8 18,7 22,4 19,6 7 4 11 6 NW 1018,7 11 14 0,0
18.08.2017 08:00:00 18,4 17,4 18,2 22,5 19,6 5 3 9 5 WZW 1018,4 12 0 0,0
18.08.2017 07:00:00 18,2 17,4 18,1 22,6 19,6 5 3 13 7 W 1018,8 11 0 0,0
18.08.2017 06:00:00 18,1 17,3 17,5 22,6 19,6 7 4 14 7 WZW 1018,8 9 0 0,0
18.08.2017 05:00:00 17,7 16,9 16,6 22,7 19,6 6 4 12 6 W 1018,9 13 0 0,2
18.08.2017 04:00:00 17,7 16,7 16,1 22,8 19,6 6 3 12 7 W 1018,4 14 0 0,0
18.08.2017 03:00:00 18,3 17,1 15,9 22,9 19,6 9 5 16 9 W 1018,5 19 0 0,0
18.08.2017 02:00:00 17,8 16,8 15,3 22,9 19,6 8 5 13 7 W 1018,5 12 0 0,0
18.08.2017 01:00:00 18,3 17,1 16,1 22,9 19,6 0 0 4 2 N 1018,2 26 0 0,0
18.08.2017 00:00:00 18,9 17,4 16,3 22,9 19,6 2 1 7 4 ONO 1018,0 24 0 0,0
17.08.2017 23:00:00 20,6 18,0 18,2 22,9 19,6 2 1 5 3 ZO 1018,0 32 0 0,0
17.08.2017 22:00:00 22,1 18,5 18,6 22,7 19,6 2 1 6 3 NNW 1018,2 35 0 0,0
17.08.2017 21:00:00 24,6 18,1 22,0 22,6 19,6 4 2 8 5 NO 1018,2 19 46 0,0
17.08.2017 20:00:00 27,0 17,8 27,4 22,4 19,6 6 3 14 8 NO 1018,4 43 60 0,0
17.08.2017 19:00:00 27,9 17,4 30,5 22,2 19,6 11 6 18 10 N 1018,7 20 60 0,0
17.08.2017 18:00:00 28,2 17,4 32,9 21,9 19,6 9 5 16 8 NNW 1018,9 20 60 0,0
17.08.2017 17:00:00 28,2 17,4 34,9 21,7 19,6 8 5 20 11 NNW 1019,1 45 60 0,0
17.08.2017 16:00:00 27,8 17,0 34,1 21,5 19,6 5 3 20 11 NNW 1019,5 47 60 0,0
17.08.2017 15:00:00 27,3 18,0 33,9 21,4 19,6 6 3 12 6 NO 1019,8 19 60 0,0
17.08.2017 14:00:00 25,6 18,0 28,2 21,3 19,6 8 5 16 9 N 1020,5 27 56 0,0
17.08.2017 13:00:00 24,5 18,0 26,3 21,3 19,6 5 3 10 5 WNW 1021,1 19 46 0,0
17.08.2017 12:00:00 23,2 17,6 26,7 21,3 19,6 4 2 11 6 NW 1021,6 18 35 0,0
17.08.2017 11:00:00 21,7 18,1 25,3 21,3 19,6 3 1 8 4 N 1021,6 20 26 0,0
17.08.2017 10:00:00 19,9 18,4 22,1 21,4 19,6 3 2 7 4 NNO 1021,4 14 28 0,0
17.08.2017 09:00:00 18,3 17,8 17,8 21,4 19,6 3 1 7 4 ZZW 1021,3 1,1 22 0,0
17.08.2017 08:00:00 17,3 17,0 16,7 21,5 19,6 5 3 6 3 Z 1021,3 6 0 0,0
17.08.2017 07:00:00 16,6 16,3 15,3 21,6 19,6 0 0 4 2 N 1021,4 1,7 0 0,0
17.08.2017 06:00:00 15,9 15,4 13,1 21,6 19,6 0 0 4 2 N 1021,0 0,2 0 0,0
17.08.2017 05:00:00 16,1 15,3 13,0 21,7 19,6 0 0 3 2 N 1021,0 0,2 0 0,0
17.08.2017 04:00:00 17,4 16,6 15,0 21,7 19,6 3 2 4 2 NNO 1021,2 0,4 0 0,0
17.08.2017 03:00:00 18,1 17,5 15,7 21,8 19,6 2 1 5 3 O 1021,5 8 0 0,0
17.08.2017 02:00:00 18,5 17,3 16,5 21,8 19,5 5 3 6 3 Z 1022,0 8 0 0,0
17.08.2017 01:00:00 18,8 17,8 17,2 21,8 19,6 0 0 5 3 N 1022,4 16 0 0,0
17.08.2017 00:00:00 19,0 17,7 18,2 21,8 19,6 0 0 7 4 N 1022,4 16 0 0,0
16.08.2017 23:00:00 19,5 17,8 18,2 21,9 19,6 4 2 10 6 WZW 1022,7 21 0 0,0
16.08.2017 22:00:00 20,7 18,5 19,8 21,9 19,6 0 0 6 3 N 1022,5 26 0 0,0
16.08.2017 21:00:00 21,3 17,9 20,9 21,8 19,6 6 3 9 5 NW 1022,1 26 0 0,0
16.08.2017 20:00:00 21,9 17,9 22,2 21,8 19,6 7 4 11 6 NW 1022,0 34 0 0,0
16.08.2017 19:00:00 22,2 18,2 22,7 21,8 19,6 6 3 10 5 N 1021,8 35 0 0,0
16.08.2017 18:00:00 22,5 17,8 24,6 21,7 19,5 7 4 13 7 N 1021,7 35 0 0,0
16.08.2017 17:00:00 22,3 17,7 23,3 21,7 19,5 5 3 12 6 NW 1021,8 39 0 0,0
16.08.2017 16:00:00 21,8 17,6 23,4 21,7 19,5 9 5 12 7 NW 1021,6 39 0 0,0
16.08.2017 15:00:00 22,2 17,8 24,3 21,6 19,5 4 2 10 5 WZW 1021,8 43 0 0,0
16.08.2017 14:00:00 22,2 18,0 23,5 21,7 19,5 3 2 10 6 W 1021,8 40 1 0,0
16.08.2017 13:00:00 20,7 17,7 20,1 21,7 19,6 3 1 10 5 W 1022,1 39 0 0,0
16.08.2017 12:00:00 19,0 17,7 19,2 21,7 19,5 7 4 11 6 NW 1022,4 20 0 0,0
16.08.2017 11:00:00 18,3 17,8 18,3 21,8 19,5 4 2 8 4 NNW 1022,1 4,6 0 0,2
16.08.2017 10:00:00 17,8 17,3 17,9 21,9 19,5 4 2 6 3 NW 1022,0 2,4 0 0,0
16.08.2017 09:00:00 17,5 17,0 17,6 21,9 19,5 4 2 8 5 WNW 1022,0 2,1 0 0,2
16.08.2017 08:00:00 17,5 17,0 17,5 22,0 19,5 5 3 11 6 WNW 1021,6 2,5 0 0,0
16.08.2017 07:00:00 17,6 17,1 17,5 22,1 19,5 7 4 11 6 WNW 1021,0 2,3 0 0,2
16.08.2017 06:00:00 17,8 17,0 17,6 22,1 19,5 6 3 12 6 NNW 1020,5 2,5 0 0,0
16.08.2017 05:00:00 18,2 16,9 18,1 22,2 19,5 8 4 11 6 NW 1020,6 16 0 0,0
16.08.2017 04:00:00 18,4 16,9 18,3 22,2 19,5 5 3 10 5 WNW 1020,7 22 0 0,0
16.08.2017 03:00:00 18,6 17,1 18,6 22,2 19,4 7 4 12 7 WNW 1021,3 29 0 0,0
16.08.2017 02:00:00 18,9 17,2 18,8 22,3 19,5 8 5 13 7 NW 1021,7 30 0 0,0
16.08.2017 01:00:00 19,3 17,3 19,1 22,3 19,5 11 6 16 9 NNW 1021,9 25 0 0,0
16.08.2017 00:00:00 19,6 18,1 19,6 22,4 19,5 7 4 10 6 WNW 1021,9 20 0 0,0
15.08.2017 23:00:00 19,8 18,5 19,7 22,4 19,4 6 3 10 5 W 1021,6 26 0 0,0
15.08.2017 22:00:00 19,9 18,6 19,8 22,4 19,4 7 4 16 9 W 1021,2 26 0 0,0
15.08.2017 21:00:00 20,3 18,8 20,2 22,4 19,5 9 5 18 10 W 1020,5 20 0 0,0
15.08.2017 20:00:00 21,6 18,6 21,5 22,4 19,4 15 8 22 12 NW 1019,9 27 0 0,0
15.08.2017 19:00:00 23,0 18,1 23,3 22,3 19,4 9 5 14 8 NNW 1019,5 24 0 0,0
15.08.2017 18:00:00 23,5 18,4 24,5 22,3 19,4 8 4 19 11 N 1019,3 28 0 0,0
15.08.2017 17:00:00 23,4 18,3 25,9 22,3 19,4 10 5 16 9 NW 1019,4 28 0 0,0
15.08.2017 16:00:00 23,1 18,2 24,8 22,3 19,4 11 6 20 11 N 1019,3 23 4 0,0
15.08.2017 15:00:00 22,2 18,0 23,2 22,3 19,4 12 7 21 11 N 1019,1 20 0 0,0
15.08.2017 14:00:00 21,9 18,5 20,4 22,3 19,4 9 5 19 10 N 1018,7 20 0 0,0
15.08.2017 13:00:00 20,8 18,6 20,2 22,3 19,4 7 4 22 12 WNW 1018,9 17 0 1,4
15.08.2017 12:00:00 21,4 18,6 21,1 22,4 19,4 6 3 18 10 WNW 1019,2 18 9 0,0
15.08.2017 11:00:00 21,0 18,4 20,7 22,5 19,4 4 2 20 11 NO 1018,4 17 2 0,2
15.08.2017 10:00:00 20,6 18,9 20,9 22,5 19,4 11 6 17 9 NW 1018,9 13 0 0,0
15.08.2017 09:00:00 19,9 18,9 19,9 22,6 19,4 10 5 13 7 WNW 1018,2 11 0 0,0
15.08.2017 08:00:00 19,4 18,6 18,8 22,7 19,4 2 1 6 3 Z 1017,5 11 0 0,0
15.08.2017 07:00:00 18,9 18,2 17,3 22,7 19,4 3 1 10 6 W 1017,3 9 0 0,0
15.08.2017 06:00:00 18,9 18,1 17,0 22,8 19,4 5 3 10 6 W 1017,1 8 0 0,0
15.08.2017 05:00:00 19,4 18,2 18,5 22,8 19,4 8 5 10 6 W 1017,1 11 0 0,0
15.08.2017 04:00:00 20,4 18,3 20,2 22,9 19,4 0 0 16 9 N 1017,7 14 0 0,0
15.08.2017 03:00:00 20,4 18,5 19,1 22,9 19,4 6 3 14 8 NW 1017,8 16 0 0,0
15.08.2017 02:00:00 20,8 18,2 19,1 22,9 19,3 0 0 11 6 N 1017,2 22 0 0,0
15.08.2017 01:00:00 21,7 18,7 21,0 22,9 19,4 12 6 22 12 W 1017,1 20 0 0,0
15.08.2017 00:00:00 22,9 18,9 22,2 22,9 19,3 15 8 45 24 W 1016,9 22 0 0,0
14.08.2017 23:00:00 24,0 18,9 23,4 22,8 19,4 24 13 49 27 NW 1014,7 25 0 0,0
14.08.2017 22:00:00 28,2 19,2 26,3 22,7 19,4 9 5 18 10 ZO 1011,4 29 0 0,0
14.08.2017 21:00:00 29,1 19,1 26,5 22,6 19,4 10 5 15 8 OZO 1011,1 34 11 0,0
14.08.2017 20:00:00 31,3 19,0 30,6 22,4 19,4 10 5 17 9 O 1010,6 29 52 0,0
14.08.2017 19:00:00 32,9 18,3 34,3 22,1 19,3 11 6 19 11 O 1010,9 49 60 0,0
14.08.2017 18:00:00 33,8 17,5 37,4 21,8 19,4 9 5 19 10 O 1011,1 20 60 0,0
14.08.2017 17:00:00 33,7 17,8 38,6 21,6 19,3 9 5 16 9 O 1011,3 39 60 0,0
14.08.2017 16:00:00 33,7 17,8 39,1 21,3 19,3 9 5 16 9 O 1011,6 39 60 0,0
14.08.2017 15:00:00 32,6 18,0 38,3 21,2 19,4 7 4 17 9 O 1012,2 43 60 0,0
14.08.2017 14:00:00 31,9 18,8 37,9 21,1 19,4 9 5 13 7 O 1012,5 37 60 0,0
14.08.2017 13:00:00 29,9 19,3 36,0 21,0 19,4 4 2 10 5 O 1013,2 32 60 0,0
14.08.2017 12:00:00 27,2 18,8 32,5 21,1 19,4 3 2 11 6 O 1013,7 39 60 0,0
14.08.2017 11:00:00 24,7 17,4 29,9 21,1 19,4 5 3 10 5 OZO 1014,2 33 60 0,0
14.08.2017 10:00:00 22,1 17,0 25,5 21,2 19,4 3 2 5 3 O 1014,4 25 60 0,0
14.08.2017 09:00:00 18,6 15,8 17,7 21,3 19,4 4 2 11 6 Z 1014,9 25 60 0,0
14.08.2017 08:00:00 15,9 14,8 13,2 21,4 19,3 9 5 10 5 ZO 1015,1 15 28 0,0
14.08.2017 07:00:00 15,0 14,0 12,6 21,5 19,3 3 2 8 5 OZO 1015,3 13 0 0,0
14.08.2017 06:00:00 14,6 14,0 12,6 21,6 19,4 4 2 5 3 ZO 1015,5 16 0 0,0
14.08.2017 05:00:00 14,6 13,6 12,3 21,7 19,4 0 0 4 2 N 1016,1 17 0 0,2
14.08.2017 04:00:00 15,4 14,1 13,2 21,7 19,3 0 0 3 2 N 1016,1 30 0 0,0
14.08.2017 03:00:00 16,2 14,9 13,6 21,8 19,4 2 1 5 3 ZZO 1016,2 32 0 0,0
14.08.2017 02:00:00 16,2 14,7 14,4 21,9 19,4 4 2 8 4 ONO 1016,6 20 0 0,0
14.08.2017 01:00:00 17,6 15,6 15,4 21,8 19,3 7 4 9 5 ZO 1016,9 29 0 0,0
14.08.2017 00:00:00 18,3 16,1 15,7 21,9 19,4 5 3 6 3 O 1017,3 30 0 0,0

tt = temperatuur
td = dauwpunt
tt 5cm = temperatuur 5cm
tt -20cm = temperatuur -20cm
tt -100cm = temperatuur -100cm
ff = windsnelheid
fx = windstoten
dd = windrichting
ppp = luchtdruk
vv = zicht
sd = Zonneschijnduur
rr = neerslag

Weerstations in de omgeving